Content
SEND FEEDBACK

Daily
Averages
Monthly
Summary
United States of America

ANN ARBOR, MICHIGAN


Home > North America > United States > Michigan
Elevation: 759 feet     Latitude: 42 17N     Longitude: 083 43W

WEATHER
 
SELECT A DAY
Number of Records: 209,042;   Date Range: 1/1/95 - 12/23/14
 
SHARE

PRINT THIS DATA

[ ← Previous Day ]
WEATHER ALMANAC - JANUARY 11, 2013
[ Next Day → ]
[ °C ]   °F
Weather ElementAverageHighLow
Temperature42.7 °F57 °F (3:53 pm)35.1 °F (12:51 am)
Dewpoint40 °F50 °F (1:42 pm)32 °F (12:30 am)
Humidity90.4 %100 % (11:27 am)72 % (3:53 pm)
Barometer29.92 in30.14 in (12:30 am)29.77 in (1:42 pm)
Wind Speed7.5 mph16.1 mph (3:53 pm)
Wind Gust23 mph (3:53 pm)
Weather ElementAverage
Visibility5.5 mi
Wind DirectionSSE (162 °)

Weather ElementTotal
Precipitation1.33 in
Heating Degree Days19 (Base 65)
Averaged from 40 records on January 11, 2013
WEATHER CONDITIONS BREAKOUT
WIND DIRECTION BREAKOUT
WEATHER BY HOUR - JANUARY 11, 2013
[ °C ]   °F
Local TimeTemperatureDewpointHumidityBarometerVisibilityWind DirectionWind SpeedGust SpeedPrecipitationEventsConditions
12:30 AM35.6 °F32.0 °F87 %30.14 in2.0 miEast (100°)9.2 mph0.09 inRainRain
12:50 AM35.6 °F33.8 °F93 %30.12 in4.0 miEast (90°)8.1 mph0.14 inRainLight Rain
12:51 AM35.1 °F33.1 °F92 %30.14 in4.0 miEast (90°)8.1 mph0.14 inRainLight Rain
1:05 AM35.6 °F33.8 °F93 %30.11 in5.0 miEast (100°)9.2 mph0.00 inOvercast
1:49 AM35.6 °F33.8 °F93 %30.10 in5.0 miESE (120°)8.1 mph0.00 inOvercast
1:53 AM35.1 °F33.1 °F92 %30.12 in5.0 miESE (120°)8.1 mph0.00 inOvercast
2:53 AM36.0 °F33.1 °F89 %30.09 in4.0 miESE (110°)6.9 mph0.06 inRainLight Rain
3:05 AM35.6 °F33.8 °F93 %30.06 in5.0 miESE (110°)6.9 mph0.02 inRainLight Rain
3:34 AM35.6 °F33.8 °F93 %30.04 in7.0 miESE (120°)6.9 mph0.05 inRainLight Rain
3:53 AM36.0 °F33.1 °F89 %30.04 in6.0 miESE (110°)9.2 mph0.05 inOvercast
4:53 AM36.0 °F34.0 °F93 %29.99 in6.0 miEast (100°)5.8 mph0.01 inRainLight Rain
5:53 AM36.0 °F34.0 °F93 %29.95 in5.0 miEast (90°)9.2 mph0.05 inRainLight Rain
6:53 AM37.0 °F35.1 °F93 %29.94 in2.5 miESE (110°)3.5 mph0.09 inRainRain
7:04 AM37.4 °F35.6 °F93 %29.93 in2.0 miSSE (150°)3.5 mph0.08 inRainHeavy Rain
7:26 AM37.4 °F35.6 °F93 %29.92 in2.5 miESE (110°)5.8 mph0.14 inRainRain
7:49 AM37.4 °F35.6 °F93 %29.90 in3.0 miEast (100°)4.6 mph0.20 inRainLight Rain
7:53 AM37.9 °F36.0 °F93 %29.91 in3.0 miEast (100°)4.6 mph0.21 inRainLight Rain
8:31 AM39.2 °F37.4 °F93 %29.87 in2.5 miSSE (150°)5.8 mph0.00 inOvercast
8:42 AM39.2 °F37.4 °F93 %29.86 in1.5 miSSE (160°)3.5 mph0.00 inOvercast
8:53 AM39.9 °F39.0 °F97 %29.85 in1.2 miSE (140°)6.9 mph0.00 inOvercast
9:37 AM44.6 °F42.8 °F93 %29.80 in2.0 miSouth (190°)9.2 mphOvercast
9:53 AM46.0 °F44.1 °F93 %29.83 in2.5 miSouth (180°)8.1 mphOvercast
10:23 AM44.6 °F42.8 °F93 %29.82 in0.8 miWSW (250°)8.1 mphOvercast
10:53 AM46.0 °F45.0 °F96 %29.84 in1.0 miSSW (200°)4.6 mphOvercast
11:14 AM46.4 °F44.6 °F93 %29.82 in3.0 miSSW (200°)5.8 mphOvercast
11:27 AM46.4 °F46.4 °F100 %29.81 in4.0 miSSW (210°)6.9 mphOvercast
11:53 AM48.9 °F46.9 °F93 %29.82 in6.0 miSSW (210°)6.9 mphOvercast
12:53 PM51.1 °F48.9 °F92 %29.79 in8.0 miSSW (210°)11.5 mphOvercast
1:42 PM53.6 °F50.0 °F88 %29.77 in10.0 miSW (220°)11.5 mphOvercast
1:53 PM54.0 °F50.0 °F86 %29.78 in10.0 miSW (230°)11.5 mphOvercast
2:44 PM55.4 °F50.0 °F82 %29.78 in10.0 miSW (220°)12.7 mph19.6 mphScattered Clouds
3:53 PM57.0 °F48.0 °F72 %29.81 in10.0 miWSW (240°)16.1 mph23.0 mphScattered Clouds
4:53 PM54.0 °F46.0 °F75 %29.84 in10.0 miWSW (240°)11.5 mphClear
5:53 PM48.9 °F43.0 °F80 %29.87 in10.0 miSW (230°)8.1 mphClear
6:53 PM46.9 °F43.0 °F86 %29.88 in10.0 miSSW (200°)4.6 mphClear
7:53 PM46.9 °F44.1 °F90 %29.87 in10.0 miSouth (190°)5.8 mphClear
8:53 PM46.9 °F44.1 °F90 %29.87 in9.0 miSouth (180°)4.6 mphClear
9:53 PM46.9 °F43.0 °F86 %29.88 in10.0 miSSW (200°)5.8 mphClear
10:53 PM46.0 °F43.0 °F89 %29.87 in10.0 miSSW (200°)5.8 mphClear
11:53 PM45.0 °F42.1 °F90 %29.86 in7.0 miSSW (200°)5.8 mphClear
Hourly data recorded from KARB, located miles away from Ann Arbor, Michigan







STORIES FROM OUR PARTNERS